Temp
-12 -12 -11 -12 -12 -12 -12 -12 -13 -13 -13 -13 -13 -12 -12 -12 -12 -12 -12 -13 -13 -12 -13 -13 -13 -13 -13 -13 -13 -12 -12 -12 -12 -11 -11 -11 -12 -12 -12 -12 -12 -12 -12
-12 -12 -12 -12 -12 -12 -12 -12 -12 -13 -13 -13 -13 -13 -12 -12 -12 -12 -13 -13 -13 -13 -13 -13 -13 -13 -13 -13 -13 -12 -12 -12 -12 -12 -12 -12 -12 -12 -12 -13 -13 -13 -13
-13 -13 -12 -12 -12 -12 -12 -12 -12 -13 -13 -13 -13 -13 -13 -12 -13 -12 -13 -13 -13 -13 -13 -13 -13 -13 -13 -13 -13 -12 -12 -12 -12 -12 -12 -12 -12 -13 -13 -13 -13 -14 -14
-12 -13 -13 -12 -12 -12 -12 -12 -12 -13 -13 -13 -13 -13 -13 -13 -13 -13 -12 -13 -13 -13 -13 -13 -13 -13 -13 -13 -13 -13 -12 -12 -12 -12 -12 -13 -13 -13 -13 -14 -14 -15 -15
-12 -12 -13 -13 -12 -12 -12 -12 -13 -12 -13 -12 -13 -13 -13 -13 -13 -13 -13 -13 -13 -13 -13 -13 -13 -13 -13 -13 -13 -13 -12 -12 -13 -13 -13 -13 -13 -13 -13 -14 -15 -15 -16
-13 -12 -13 -13 -12 -12 -12 -12 -12 -12 -13 -13 -13 -14 -13 -13 -13 -13 -13 -13 -13 -14 -14 -14 -14 -13 -13 -13 -13 -13 -13 -13 -13 -13 -13 -14 -14 -14 -14 -15 -15 -15 -16
-13 -13 -13 -13 -13 -12 -12 -12 -12 -12 -13 -13 -13 -14 -14 -13 -13 -14 -13 -13 -14 -14 -14 -14 -13 -13 -13 -13 -13 -13 -13 -13 -13 -14 -14 -14 -15 -15 -15 -15 -15 -15 -16
-13 -13 -13 -13 -13 -12 -12 -12 -12 -12 -13 -12 -13 -13 -14 -13 -14 -14 -14 -14 -14 -14 -14 -14 -14 -13 -13 -13 -13 -13 -13 -14 -14 -14 -14 -15 -16 -16 -16 -16 -16 -15 -16
-15 -13 -13 -13 -13 -13 -12 -13 -13 -13 -13 -13 -13 -13 -14 -14 -14 -14 -14 -14 -14 -14 -14 -14 -14 -13 -14 -14 -14 -14 -14 -14 -14 -15 -16 -16 -16 -16 -16 -16 -16 -16 -16
-16 -15 -15 -13 -13 -13 -13 -13 -13 -13 -13 -13 -13 -14 -14 -14 -14 -14 -14 -14 -14 -14 -14 -14 -14 -14 -14 -14 -14 -14 -14 -15 -15 -16 -16 -16 -17 -17 -17 -17 -17 -17 -17
-15 -16 -15 -15 -13 -13 -13 -13 -13 -13 -13 -13 -13 -14 -14 -14 -14 -14 -14 -14 -14 -14 -14 -14 -14 -14 -14 -15 -15 -15 -15 -16 -16 -16 -17 -17 -17 -17 -17 -17 -18 -18 -18
-15 -16 -15 -16 -15 -13 -13 -13 -14 -14 -13 -13 -14 -14 -14 -15 -15 -15 -14 -14 -14 -14 -14 -14 -15 -15 -15 -15 -15 -16 -16 -16 -17 -17 -17 -17 -17 -17 -18 -18 -18 -18 -18
-16 -16 -15 -16 -16 -14 -14 -14 -14 -14 -14 -13 -14 -14 -14 -15 -15 -15 -15 -14 -14 -14 -15 -15 -15 -15 -16 -16 -16 -16 -17 -17 -17 -17 -17 -18 -18 -18 -18 -19 -18 -18 -18
-17 -16 -17 -17 -17 -15 -14 -14 -14 -14 -14 -14 -14 -14 -15 -15 -15 -15 -15 -14 -15 -15 -15 -15 -15 -16 -16 -16 -17 -17 -17 -17 -18 -18 -18 -18 -18 -19 -19 -19 -19 -18 -18
-19 -18 -18 -17 -17 -15 -15 -14 -14 -14 -14 -14 -14 -15 -15 -15 -15 -15 -15 -15 -15 -15 -16 -16 -16 -16 -17 -17 -17 -17 -17 -18 -18 -18 -18 -19 -19 -19 -19 -19 -18 -19 -19
-18 -18 -18 -17 -16 -15 -15 -15 -14 -14 -15 -15 -15 -15 -15 -15 -15 -15 -15 -15 -15 -16 -16 -16 -16 -17 -17 -17 -17 -18 -18 -18 -18 -19 -19 -19 -19 -19 -19 -19 -19 -19 -19
-18 -18 -17 -16 -16 -15 -15 -14 -15 -15 -15 -15 -15 -15 -15 -15 -15 -15 -15 -16 -16 -16 -16 -16 -17 -17 -17 -17 -18 -18 -18 -18 -19 -19 -19 -19 -19 -19 -19 -19 -19 -20 -21
-16 -16 -16 -15 -15 -15 -15 -15 -15 -15 -15 -15 -15 -15 -15 -15 -15 -15 -16 -16 -16 -16 -17 -17 -17 -17 -17 -18 -18 -18 -19 -19 -19 -19 -19 -19 -19 -19 -19 -19 -20 -21 -24
-15 -15 -15 -15 -15 -15 -15 -15 -16 -16 -16 -16 -15 -15 -15 -15 -16 -16 -16 -16 -16 -17 -17 -17 -17 -18 -18 -18 -18 -19 -19 -19 -19 -19 -19 -19 -19 -19 -20 -20 -22 -24 -25
-15 -15 -16 -16 -16 -16 -16 -16 -17 -16 -16 -15 -15 -15 -15 -16 -16 -16 -16 -16 -17 -17 -17 -17 -18 -18 -19 -19 -19 -19 -19 -19 -19 -19 -19 -19 -20 -20 -20 -22 -24 -25 -25
-15 -16 -16 -15 -16 -16 -16 -16 -15 -15 -16 -16 -16 -15 -15 -16 -16 -16 -16 -17 -17 -17 -18 -18 -18 -18 -19 -19 -19 -19 -19 -19 -19 -19 -20 -20 -20 -21 -23 -24 -25 -25 -25
-15 -15 -15 -15 -15 -15 -15 -15 -16 -16 -16 -16 -16 -16 -16 -16 -16 -16 -17 -17 -17 -18 -18 -18 -19 -19 -19 -19 -19 -19 -19 -19 -19 -20 -20 -20 -21 -23 -24 -25 -25 -25 -25
-15 -15 -15 -15 -15 -16 -16 -16 -16 -16 -16 -16 -16 -16 -16 -16 -17 -17 -17 -18 -18 -18 -18 -19 -19 -19 -20 -19 -19 -19 -19 -19 -20 -21 -21 -21 -24 -25 -25 -25 -25 -25 -25
-16 -16 -16 -16 -16 -16 -16 -16 -16 -16 -16 -16 -16 -16 -16 -17 -17 -17 -18 -18 -18 -18 -19 -19 -20 -20 -20 -20 -19 -19 -19 -20 -20 -21 -22 -25 -25 -25 -25 -25 -25 -25 -25
-16 -16 -16 -16 -16 -16 -16 -16 -16 -16 -16 -16 -16 -16 -17 -17 -18 -18 -18 -18 -18 -19 -19 -20 -20 -20 -19 -19 -19 -19 -20 -20 -21 -22 -24 -25 -25 -25 -25 -25 -25 -25 -26
-16 -16 -17 -16 -16 -16 -16 -16 -16 -16 -16 -16 -17 -17 -17 -18 -18 -18 -18 -19 -19 -19 -20 -20 -20 -20 -19 -19 -20 -20 -21 -21 -22 -24 -25 -26 -25 -25 -25 -26 -26 -26 -27
Height
5732 5734 5738 5742 5745 5747 5749 5753 5755 5756 5756 5758 5759 5760 5762 5764 5763 5762 5762 5762 5763 5763 5763 5763 5763 5762 5761 5760 5758 5757 5755 5753 5750 5747 5744 5741 5737 5733 5729 5724 5720 5717 5713
5719 5723 5725 5730 5735 5739 5741 5744 5747 5749 5749 5750 5752 5753 5755 5756 5756 5755 5755 5756 5754 5754 5756 5756 5755 5754 5753 5752 5750 5749 5747 5744 5742 5738 5735 5731 5728 5723 5718 5713 5709 5705 5700
5707 5710 5714 5718 5724 5728 5731 5733 5738 5740 5741 5742 5744 5746 5748 5749 5749 5749 5750 5749 5749 5748 5748 5748 5748 5746 5745 5744 5742 5740 5738 5735 5732 5729 5726 5722 5718 5714 5709 5703 5698 5693 5687
5690 5696 5701 5705 5711 5717 5720 5723 5727 5732 5732 5734 5736 5738 5740 5742 5743 5742 5742 5742 5742 5741 5741 5740 5738 5738 5737 5736 5734 5731 5729 5725 5722 5719 5715 5710 5706 5703 5701 5696 5689 5683 5676
5675 5681 5687 5692 5698 5703 5708 5711 5714 5721 5723 5726 5728 5730 5733 5734 5735 5735 5734 5734 5735 5734 5733 5732 5729 5730 5729 5727 5725 5722 5719 5715 5712 5708 5704 5700 5695 5690 5685 5682 5676 5670 5664
5660 5666 5671 5677 5683 5689 5697 5702 5706 5712 5714 5717 5720 5723 5725 5726 5727 5727 5727 5727 5726 5726 5724 5724 5723 5722 5721 5718 5716 5712 5709 5705 5702 5697 5693 5688 5683 5677 5671 5666 5661 5656 5651
5644 5650 5657 5664 5670 5678 5685 5691 5697 5703 5707 5710 5713 5715 5717 5719 5719 5720 5720 5720 5719 5719 5717 5716 5716 5714 5711 5709 5706 5702 5699 5695 5691 5686 5681 5675 5669 5663 5657 5650 5645 5640 5633
5626 5634 5641 5650 5657 5665 5673 5680 5687 5693 5697 5701 5704 5707 5709 5711 5712 5713 5713 5712 5711 5711 5709 5708 5707 5705 5703 5699 5695 5692 5689 5684 5679 5673 5667 5661 5656 5649 5642 5635 5629 5624 5617
5608 5616 5624 5633 5642 5651 5661 5669 5677 5683 5688 5693 5696 5699 5702 5703 5705 5706 5706 5705 5704 5703 5702 5700 5698 5696 5692 5689 5686 5682 5677 5672 5666 5660 5655 5649 5642 5635 5628 5619 5611 5604 5599
5590 5598 5606 5616 5628 5637 5646 5656 5665 5672 5677 5683 5687 5691 5695 5697 5698 5699 5699 5698 5697 5696 5694 5692 5689 5686 5683 5680 5675 5671 5665 5660 5654 5649 5642 5635 5628 5621 5612 5603 5595 5586 5578
5578 5583 5592 5598 5611 5624 5635 5646 5656 5663 5669 5676 5681 5684 5687 5689 5691 5692 5692 5691 5690 5688 5686 5683 5681 5677 5674 5669 5665 5659 5654 5648 5642 5635 5629 5621 5614 5604 5595 5587 5578 5569 5559
5556 5565 5577 5586 5598 5612 5625 5637 5647 5655 5663 5669 5674 5678 5680 5682 5684 5685 5684 5683 5682 5680 5678 5674 5671 5668 5664 5659 5653 5648 5643 5636 5630 5623 5615 5607 5598 5588 5579 5570 5560 5550 5538
5543 5554 5565 5575 5589 5603 5618 5631 5640 5649 5657 5663 5668 5671 5673 5675 5677 5677 5677 5676 5674 5672 5669 5665 5662 5658 5653 5648 5643 5638 5632 5625 5617 5609 5601 5592 5582 5573 5563 5553 5542 5530 5517
5535 5545 5557 5569 5583 5598 5613 5625 5636 5645 5651 5657 5662 5665 5667 5669 5670 5670 5669 5668 5666 5663 5660 5657 5652 5648 5643 5638 5633 5626 5619 5611 5603 5594 5585 5576 5567 5557 5546 5535 5522 5508 5493
5538 5546 5556 5569 5586 5601 5612 5622 5633 5641 5647 5652 5656 5659 5661 5662 5663 5663 5661 5660 5658 5655 5652 5647 5643 5638 5633 5627 5621 5614 5606 5598 5589 5580 5571 5562 5552 5540 5528 5514 5500 5484 5468
5546 5554 5565 5577 5591 5602 5612 5622 5631 5638 5643 5647 5651 5654 5655 5656 5656 5655 5654 5652 5650 5646 5642 5638 5634 5628 5623 5616 5609 5601 5593 5584 5575 5567 5557 5547 5536 5524 5510 5495 5478 5459 5439
5561 5567 5576 5587 5595 5605 5614 5622 5628 5635 5639 5643 5646 5648 5649 5650 5649 5648 5647 5644 5641 5637 5634 5629 5624 5618 5611 5604 5597 5589 5580 5571 5562 5552 5542 5531 5518 5505 5491 5475 5455 5435 5414
5575 5580 5587 5593 5599 5606 5613 5620 5627 5631 5635 5639 5641 5642 5643 5643 5643 5641 5639 5636 5633 5629 5624 5618 5612 5606 5600 5592 5584 5576 5568 5558 5548 5537 5525 5513 5500 5484 5469 5452 5433 5414 5396
5585 5588 5592 5596 5602 5609 5615 5620 5624 5628 5632 5635 5636 5637 5637 5637 5635 5634 5631 5628 5623 5619 5614 5608 5602 5595 5587 5580 5572 5564 5555 5546 5536 5523 5510 5497 5481 5464 5445 5430 5413 5397 5383
5589 5591 5594 5599 5604 5608 5613 5616 5620 5625 5628 5630 5630 5631 5631 5630 5628 5625 5622 5619 5614 5609 5604 5598 5591 5584 5576 5569 5560 5551 5542 5534 5523 5509 5493 5477 5461 5441 5423 5408 5396 5386 5377
5591 5593 5597 5601 5604 5608 5612 5615 5619 5621 5622 5624 5625 5625 5624 5623 5620 5618 5614 5609 5605 5599 5593 5587 5580 5573 5566 5557 5548 5539 5529 5518 5506 5491 5475 5458 5440 5421 5405 5392 5384 5377 5370
5594 5596 5598 5601 5604 5606 5609 5612 5615 5617 5619 5619 5619 5619 5618 5616 5613 5609 5605 5601 5595 5589 5583 5576 5568 5561 5553 5545 5536 5526 5514 5501 5487 5472 5454 5437 5419 5402 5392 5383 5377 5369 5362
5595 5596 5599 5602 5605 5607 5610 5612 5613 5614 5614 5615 5614 5614 5612 5609 5605 5601 5596 5591 5585 5579 5572 5566 5558 5550 5542 5534 5524 5512 5500 5486 5471 5454 5434 5416 5400 5390 5382 5376 5370 5363 5356
5597 5598 5600 5603 5604 5606 5608 5609 5610 5610 5611 5611 5610 5608 5605 5601 5596 5591 5586 5581 5575 5569 5562 5555 5548 5540 5531 5522 5512 5500 5487 5472 5455 5436 5416 5399 5389 5382 5377 5370 5364 5357 5349
5597 5598 5599 5601 5603 5605 5605 5606 5606 5607 5606 5605 5603 5600 5596 5592 5587 5582 5577 5571 5565 5558 5551 5544 5537 5529 5521 5510 5498 5484 5469 5453 5435 5416 5400 5389 5383 5377 5372 5365 5358 5350 5341
5596 5597 5598 5600 5601 5602 5603 5603 5603 5602 5601 5599 5596 5592 5588 5583 5578 5573 5568 5561 5554 5548 5541 5534 5526 5517 5506 5495 5481 5466 5449 5433 5416 5401 5390 5384 5379 5374 5368 5361 5352 5343 5333
Wind_Speed
48 49 47 43 41 41 42 38 38 42 41 39 38 36 34 34 34 37 38 38 37 36 37 33 32 33 33 34 35 37 39 41 41 42 44 45 45 46 48 48 48 50 52
50 50 51 48 42 42 43 41 37 39 44 43 40 37 36 36 35 38 36 35 40 38 37 34 34 34 34 36 36 38 41 42 44 44 46 47 46 48 49 50 52 54 54
51 50 51 49 44 42 43 44 39 38 42 45 44 40 39 37 37 37 35 36 37 37 39 37 35 36 36 39 39 41 43 45 45 46 48 47 48 48 49 52 54 56 57
54 54 52 51 48 43 45 45 42 39 42 41 41 41 39 39 38 37 37 37 38 39 42 40 39 38 40 42 42 44 46 47 48 48 49 50 51 52 52 51 53 55 57
55 56 56 54 51 49 46 46 46 39 44 41 39 40 39 37 39 39 37 38 39 42 44 41 43 41 42 43 45 45 47 48 49 50 50 52 54 56 58 56 54 55 57
56 56 59 59 56 54 50 47 46 40 44 41 40 39 37 37 39 38 37 36 39 39 40 42 42 42 43 45 45 45 47 48 51 52 54 56 57 58 59 59 59 59 60
55 56 58 60 60 56 53 50 47 41 43 42 40 39 38 37 40 38 37 36 37 37 40 40 41 43 44 43 43 46 48 51 52 54 56 58 59 59 60 62 63 65 66
59 57 55 58 60 61 56 52 48 44 43 43 39 40 38 38 40 39 37 36 38 38 39 40 41 41 41 41 44 48 50 52 54 57 58 59 59 60 62 65 69 69 68
47 52 61 57 59 60 59 54 50 46 45 43 38 39 38 38 38 39 37 35 35 37 38 39 38 39 40 42 46 49 51 54 57 57 58 59 60 62 67 70 71 71 72
50 44 52 60 58 59 59 55 50 48 47 43 38 39 36 38 37 38 35 33 34 36 37 37 37 39 41 45 48 51 54 57 57 58 58 61 63 68 70 71 70 71 73
57 54 44 53 60 60 56 52 47 49 47 41 37 37 36 37 36 37 35 35 35 37 36 36 38 40 43 46 50 54 56 57 58 58 61 63 68 70 70 71 71 73 77
46 48 44 47 58 59 54 49 48 49 44 39 37 35 36 36 36 36 35 35 37 37 36 37 39 43 46 50 53 54 55 56 58 60 63 68 69 70 70 71 74 78 82
42 37 42 43 57 59 51 47 49 48 42 38 35 34 35 35 36 36 35 36 37 37 37 39 42 45 49 52 53 55 57 58 60 63 66 68 69 69 71 74 79 84 88
32 31 37 42 57 55 49 48 48 44 39 37 35 35 34 34 36 36 35 36 36 37 39 41 44 48 50 51 54 56 56 59 62 66 67 68 69 71 75 80 85 90 96
22 26 33 46 49 47 46 45 43 39 36 34 35 35 33 34 35 35 34 34 36 39 41 42 47 48 50 53 55 56 59 62 65 66 66 68 71 75 81 86 91 98 103
19 26 37 42 44 43 42 39 35 34 34 33 34 33 32 32 33 33 33 35 38 40 41 45 47 49 52 53 56 58 62 63 64 65 67 70 74 80 85 92 98 103 108
23 28 32 36 36 34 33 33 33 32 30 30 30 28 29 30 30 32 34 36 38 40 43 45 47 49 51 54 57 60 61 63 64 66 69 74 80 85 92 98 102 103 96
20 23 25 27 29 30 30 29 28 27 27 26 25 26 27 29 31 33 34 36 38 41 43 46 48 50 53 56 58 59 61 62 65 69 75 80 85 92 97 102 102 89 72
18 21 23 23 22 21 23 24 24 21 21 22 23 26 27 29 30 31 33 37 40 42 44 47 49 52 54 55 58 59 61 63 68 74 79 85 90 97 102 101 86 63 49
12 20 23 23 23 23 22 19 17 18 21 23 24 25 25 26 29 32 36 39 40 43 46 48 51 52 54 56 58 59 62 66 72 78 85 90 95 101 100 83 60 41 40
15 15 15 15 15 16 16 18 19 19 17 18 19 21 24 27 31 34 37 39 42 45 48 49 51 53 55 57 57 61 66 71 76 84 89 94 99 98 80 57 41 39 39
10 12 14 16 14 10 8 7 9 12 15 17 19 23 26 29 33 36 38 41 44 45 47 49 52 54 55 55 60 65 70 76 82 89 94 98 96 75 54 38 38 38 36
4 1 2 3 5 7 9 10 12 13 16 19 21 24 28 32 35 38 40 42 43 46 49 50 52 51 53 58 63 69 76 81 87 92 96 91 70 51 35 36 34 33 36
5 4 5 6 7 8 9 11 13 15 18 20 22 26 31 35 37 38 40 42 45 47 48 50 48 51 56 61 67 74 79 84 89 94 88 66 47 32 33 32 33 37 38
8 8 7 7 7 9 10 11 14 15 17 21 26 30 33 35 36 38 41 44 45 47 47 47 50 54 60 65 72 77 83 88 92 88 64 44 30 30 29 33 35 38 42
10 7 6 6 7 8 9 12 15 18 22 26 29 32 33 34 37 40 42 44 45 44 46 49 53 58 65 71 76 82 86 90 87 62 42 25 25 26 31 33 38 43 43
Wind_Direction
250 251 247 246 246 247 250 244 242 244 251 253 255 257 257 255 259 255 255 253 248 256 256 261 264 266 268 272 275 279 283 286 289 289 290 291 292 292 293 293 294 294 293
251 249 250 248 247 245 248 249 242 241 245 251 253 256 259 257 256 257 260 259 252 252 256 260 267 270 270 273 278 280 284 286 289 290 290 291 292 293 294 296 296 295 293
250 248 248 248 245 242 244 250 243 238 243 247 250 252 257 259 253 258 259 260 261 262 257 260 267 271 275 278 280 283 286 288 289 290 290 290 291 293 296 296 295 294 294
247 245 243 243 241 239 240 246 247 240 245 248 249 252 255 260 254 254 257 260 261 261 260 261 264 272 275 279 283 286 287 289 290 290 291 294 295 296 295 292 292 293 293
245 242 241 240 238 236 236 240 244 238 242 248 250 251 256 259 258 253 258 259 261 262 260 261 271 273 277 281 284 287 289 290 291 292 295 296 297 298 297 295 295 295 293
246 242 237 236 235 234 235 238 244 238 242 245 247 249 256 260 261 257 259 260 263 265 264 264 268 273 277 281 285 288 289 291 292 295 298 299 300 298 297 297 297 296 295
247 244 239 235 234 234 234 236 244 240 241 242 246 246 251 258 260 261 261 262 263 262 262 265 270 274 279 283 287 288 291 292 295 298 300 299 299 299 299 299 298 299 299
249 242 240 235 234 233 232 235 237 238 237 238 242 244 247 255 258 260 263 262 263 264 267 269 273 277 281 285 288 290 291 295 298 300 300 301 301 300 300 301 300 300 300
248 241 240 234 229 231 231 233 232 231 232 235 237 242 247 253 257 258 262 263 266 268 270 273 276 279 283 287 288 291 295 298 299 300 300 301 301 302 303 302 303 303 301
251 248 233 228 227 226 226 226 226 224 226 230 232 239 246 253 255 257 261 264 268 270 273 275 278 282 286 288 292 295 298 299 299 300 300 302 303 303 303 305 305 304 303
250 251 239 224 218 222 222 220 220 222 223 227 234 238 244 251 255 256 260 265 271 275 276 278 282 285 288 292 295 297 298 299 300 301 302 303 303 305 306 306 305 305 305
237 230 228 224 209 216 216 212 213 217 220 226 232 236 243 251 252 257 264 270 276 277 278 281 285 289 293 295 297 298 299 301 302 302 304 304 305 307 307 306 306 306 306
217 222 220 215 204 208 205 204 208 214 219 226 231 237 244 249 252 260 268 274 277 278 281 284 288 292 294 295 297 300 301 301 303 304 304 306 307 307 307 307 307 308 309
213 212 202 200 199 198 195 199 206 212 218 226 232 238 244 249 258 264 269 274 277 279 282 287 291 293 295 298 300 300 302 304 305 306 308 308 308 308 307 308 309 309 310
173 179 185 187 190 186 189 196 204 210 218 228 235 240 245 254 262 266 271 274 277 282 287 291 292 295 298 299 301 303 305 306 307 308 308 308 308 309 310 310 311 311 311
154 168 170 174 175 182 187 195 202 213 223 231 238 244 251 258 264 267 271 274 281 285 289 291 294 296 298 300 303 304 305 307 308 308 307 309 310 311 312 313 313 312 314
134 150 161 168 171 178 186 196 206 217 227 235 241 248 254 260 263 267 274 280 285 289 291 294 296 298 300 302 304 305 307 308 308 308 310 310 312 314 314 313 314 316 314
130 146 162 168 171 180 190 201 212 222 230 237 244 251 255 257 265 273 281 286 288 291 294 296 298 300 301 303 305 307 308 308 309 311 311 313 315 314 314 316 317 316 312
145 150 160 166 175 187 198 208 215 220 229 238 242 248 257 266 276 283 284 287 291 294 296 298 299 300 302 305 307 308 308 310 311 311 314 313 313 315 317 318 317 314 312
166 159 157 164 174 182 192 196 203 215 226 235 246 259 272 279 281 284 289 292 294 295 296 298 301 303 306 307 307 309 310 311 313 315 315 315 316 318 318 317 316 314 314
146 148 150 157 166 173 184 196 207 222 241 258 267 274 278 281 286 288 291 293 294 297 299 302 303 305 306 308 309 311 312 314 316 316 315 316 318 319 317 316 314 315 315
139 151 160 163 169 176 197 228 250 256 263 269 272 277 283 285 287 289 291 294 297 301 303 304 305 307 308 310 312 313 315 315 316 316 316 318 319 317 317 314 316 317 317
61 224 249 247 237 240 245 255 260 263 268 274 278 282 285 287 290 293 295 298 301 303 304 305 306 308 311 312 314 315 317 316 315 318 319 319 317 319 317 317 318 320 319
248 229 232 249 253 254 254 258 267 273 276 280 284 286 289 292 294 297 299 301 303 304 305 307 309 311 312 314 317 317 316 317 318 320 320 319 319 317 319 321 320 323 322
246 240 238 239 242 257 266 275 276 280 284 286 288 292 296 298 298 300 302 303 304 305 308 310 311 312 315 317 318 318 317 319 321 322 321 319 317 321 323 325 327 327 325
248 243 248 249 257 272 279 284 287 289 290 290 292 299 302 301 303 304 304 305 306 309 310 312 314 318 319 321 321 320 320 322 323 322 321 317 321 326 330 333 332 330 330